• En España
  • Lista de países
  • Para 7 días
  • Temperatura del agua
  • Mapa Satelital
  • El tiempo en el mapa
  • Informadores
  • user-avatar
    Iniciar sesión

    Tiempo cada hora Quito

    Hoy, 22 Febrero, Jueves

    Tiempo Temperatura Precipitaciones Viento Presión Humedad
    00:00 +18°C° 0,2 mm 1 mps 620 mmHg 94%
    01:00 +17°C° 0 mm 2 mps 620 mmHg 94%
    02:00 +17°C° 0 mm 2 mps 619 mmHg 95%
    03:00 +16°C° 0 mm 1 mps 619 mmHg 95%
    04:00 +16°C° 0 mm 1 mps 619 mmHg 95%
    05:00 +16°C° 0 mm 2 mps 619 mmHg 95%
    06:00 +17°C° 0 mm 2 mps 620 mmHg 94%
    07:00 +17°C° 0 mm 2 mps 620 mmHg 93%
    08:00 +19°C° 0,4 mm 2 mps 621 mmHg 87%
    09:00 +21°C° 0,4 mm 2 mps 621 mmHg 81%
    10:00 +24°C° 0,4 mm 3 mps 622 mmHg 75%
    11:00 +24°C° 0,7 mm 3 mps 621 mmHg 72%
    12:00 +25°C° 0,7 mm 3 mps 621 mmHg 69%
    13:00 +26°C° 0,7 mm 3 mps 621 mmHg 66%
    14:00 +26°C° 0,7 mm 3 mps 620 mmHg 68%
    15:00 +25°C° 0,7 mm 3 mps 620 mmHg 70%
    16:00 +25°C° 0,7 mm 3 mps 620 mmHg 72%
    17:00 +22°C° 0,4 mm 3 mps 620 mmHg 79%
    18:00 +20°C° 0,4 mm 2 mps 619 mmHg 85%
    19:00 +19°C° 0,4 mm 2 mps 619 mmHg 91%
    20:00 +18°C° 0,5 mm 2 mps 620 mmHg 93%
    21:00 +18°C° 0,5 mm 2 mps 620 mmHg 94%
    22:00 +17°C° 0,5 mm 2 mps 620 mmHg 95%
    23:00 +17°C° 0,1 mm 2 mps 620 mmHg 95%

    Mañana, 23 Febrero, Viernes

    Tiempo Temperatura Precipitaciones Viento Presión Humedad
    00:00 +17°C° 0,1 mm 2 mps 620 mmHg 95%
    01:00 +16°C° 0,1 mm 2 mps 619 mmHg 95%
    02:00 +16°C° 0 mm 2 mps 619 mmHg 96%
    03:00 +16°C° 0 mm 2 mps 619 mmHg 96%
    04:00 +16°C° 0 mm 2 mps 619 mmHg 96%
    05:00 +16°C° 0 mm 2 mps 619 mmHg 95%
    06:00 +16°C° 0 mm 1 mps 620 mmHg 95%
    07:00 +18°C° 0 mm 1 mps 620 mmHg 94%
    08:00 +19°C° 0,3 mm 1 mps 621 mmHg 90%
    09:00 +19°C° 0,3 mm 2 mps 621 mmHg 86%
    10:00 +20°C° 0,3 mm 2 mps 622 mmHg 82%
    11:00 +21°C° 0,6 mm 2 mps 621 mmHg 80%
    12:00 +23°C° 0,6 mm 2 mps 621 mmHg 78%
    13:00 +23°C° 0,6 mm 2 mps 621 mmHg 76%
    14:00 +23°C° 0,7 mm 2 mps 620 mmHg 78%
    15:00 +23°C° 0,7 mm 2 mps 620 mmHg 79%
    16:00 +23°C° 0,7 mm 2 mps 619 mmHg 81%
    17:00 +21°C° 0,6 mm 1 mps 619 mmHg 85%
    18:00 +20°C° 0,6 mm 1 mps 619 mmHg 89%
    19:00 +19°C° 0,6 mm 1 mps 620 mmHg 93%
    20:00 +18°C° 0,3 mm 1 mps 620 mmHg 94%
    21:00 +18°C° 0,3 mm 1 mps 621 mmHg 95%
    22:00 +18°C° 0,3 mm 1 mps 621 mmHg 95%
    23:00 +18°C° 0,3 mm 1 mps 621 mmHg 96%

    Pasado mañana, 24 Febrero, Sábado

    Tiempo Temperatura Precipitaciones Viento Presión Humedad
    00:00 +18°C° 0,3 mm 1 mps 620 mmHg 96%
    01:00 +16°C° 0,3 mm 1 mps 620 mmHg 97%
    02:00 +16°C° 0,2 mm 1 mps 620 mmHg 97%
    03:00 +16°C° 0,2 mm 2 mps 620 mmHg 97%
    04:00 +16°C° 0,2 mm 2 mps 620 mmHg 97%
    05:00 +16°C° 0,1 mm 2 mps 620 mmHg 96%
    06:00 +16°C° 0,1 mm 2 mps 620 mmHg 96%
    07:00 +16°C° 0,1 mm 2 mps 621 mmHg 95%
    08:00 +17°C° 0,2 mm 2 mps 621 mmHg 92%
    09:00 +18°C° 0,2 mm 2 mps 622 mmHg 89%
    10:00 +19°C° 0,2 mm 2 mps 622 mmHg 85%
    11:00 +20°C° 0,6 mm 2 mps 622 mmHg 84%
    12:00 +20°C° 0,6 mm 2 mps 622 mmHg 83%
    13:00 +21°C° 0,6 mm 2 mps 621 mmHg 81%
    14:00 +21°C° 0,4 mm 2 mps 621 mmHg 81%
    15:00 +21°C° 0,4 mm 2 mps 620 mmHg 81%
    16:00 +21°C° 0,4 mm 2 mps 620 mmHg 80%
    17:00 +20°C° 0,5 mm 2 mps 620 mmHg 84%
    18:00 +20°C° 0,5 mm 1 mps 620 mmHg 88%
    19:00 +18°C° 0,5 mm 1 mps 620 mmHg 92%
    20:00 +18°C° 0,3 mm 1 mps 621 mmHg 93%
    21:00 +18°C° 0,3 mm 1 mps 621 mmHg 94%
    22:00 +16°C° 0,3 mm 1 mps 622 mmHg 94%
    23:00 +16°C° 0,2 mm 1 mps 622 mmHg 95%

    25 Febrero, Domingo

    Tiempo Temperatura Precipitaciones Viento Presión Humedad
    00:00 +16°C° 0,2 mm 1 mps 621 mmHg 95%
    01:00 +16°C° 0,2 mm 1 mps 621 mmHg 95%
    02:00 +16°C° 0,5 mm 1 mps 621 mmHg 95%
    03:00 +16°C° 0,5 mm 1 mps 621 mmHg 95%
    04:00 +16°C° 0,5 mm 1 mps 621 mmHg 95%
    05:00 +16°C° 0,3 mm 1 mps 621 mmHg 95%
    06:00 +16°C° 0,3 mm 1 mps 621 mmHg 94%
    07:00 +16°C° 0,3 mm 1 mps 622 mmHg 93%
    08:00 +19°C° 0,2 mm 1 mps 623 mmHg 87%
    09:00 +21°C° 0,2 mm 1 mps 623 mmHg 80%
    10:00 +23°C° 0,2 mm 1 mps 624 mmHg 74%
    11:00 +23°C° 0,9 mm 1 mps 623 mmHg 74%
    12:00 +23°C° 0,9 mm 2 mps 623 mmHg 74%
    13:00 +23°C° 0,9 mm 2 mps 622 mmHg 74%
    14:00 +23°C° 1,5 mm 2 mps 622 mmHg 78%
    15:00 +21°C° 1,5 mm 2 mps 621 mmHg 81%
    16:00 +21°C° 1,5 mm 2 mps 621 mmHg 84%
    17:00 +20°C° 0,9 mm 2 mps 621 mmHg 87%
    18:00 +18°C° 0,9 mm 2 mps 621 mmHg 90%
    19:00 +17°C° 0,9 mm 2 mps 621 mmHg 93%
    20:00 +17°C° 0,9 mm 2 mps 622 mmHg 94%
    21:00 +17°C° 0,9 mm 2 mps 622 mmHg 95%
    22:00 +16°C° 0,9 mm 2 mps 622 mmHg 95%
    23:00 +16°C° 0,1 mm 2 mps 622 mmHg 95%

    26 Febrero, Lunes

    Tiempo Temperatura Precipitaciones Viento Presión Humedad
    00:00 +16°C° 0,1 mm 2 mps 621 mmHg 95%
    01:00 +16°C° 0,1 mm 3 mps 621 mmHg 94%
    02:00 +16°C° 0 mm 3 mps 621 mmHg 94%
    03:00 +14°C° 0 mm 3 mps 621 mmHg 94%
    04:00 +14°C° 0 mm 3 mps 621 mmHg 94%
    05:00 +14°C° 0 mm 3 mps 621 mmHg 93%
    06:00 +16°C° 0 mm 3 mps 621 mmHg 92%
    07:00 +16°C° 0 mm 3 mps 622 mmHg 91%
    08:00 +18°C° 0,2 mm 3 mps 623 mmHg 84%
    09:00 +20°C° 0,2 mm 3 mps 623 mmHg 77%
    10:00 +22°C° 0,2 mm 3 mps 624 mmHg 70%
    11:00 +24°C° 0,5 mm 3 mps 623 mmHg 67%
    12:00 +24°C° 0,5 mm 3 mps 623 mmHg 65%
    13:00 +25°C° 0,5 mm 3 mps 623 mmHg 62%
    14:00 +25°C° 0,8 mm 3 mps 622 mmHg 66%
    15:00 +24°C° 0,8 mm 3 mps 622 mmHg 70%
    16:00 +24°C° 0,8 mm 3 mps 622 mmHg 75%
    17:00 +21°C° 1 mm 2 mps 621 mmHg 80%
    18:00 +19°C° 1 mm 2 mps 621 mmHg 85%
    19:00 +17°C° 1 mm 2 mps 621 mmHg 91%
    20:00 +17°C° 0,3 mm 2 mps 622 mmHg 91%
    21:00 +17°C° 0,3 mm 2 mps 622 mmHg 91%
    22:00 +17°C° 0,3 mm 2 mps 623 mmHg 91%
    23:00 +16°C° 0 mm 2 mps 622 mmHg 91%

    27 Febrero, Martes

    Tiempo Temperatura Precipitaciones Viento Presión Humedad
    00:00 +16°C° 0 mm 2 mps 622 mmHg 91%
    01:00 +16°C° 0 mm 2 mps 621 mmHg 91%
    02:00 +16°C° 0 mm 2 mps 621 mmHg 91%
    03:00 +16°C° 0 mm 2 mps 621 mmHg 92%
    04:00 +15°C° 0 mm 2 mps 621 mmHg 92%
    05:00 +16°C° 0 mm 2 mps 621 mmHg 91%
    06:00 +16°C° 0 mm 2 mps 622 mmHg 91%
    07:00 +16°C° 0 mm 2 mps 622 mmHg 90%
    08:00 +18°C° 0,2 mm 2 mps 623 mmHg 82%
    09:00 +21°C° 0,2 mm 2 mps 623 mmHg 74%
    10:00 +24°C° 0,2 mm 2 mps 624 mmHg 66%
    11:00 +24°C° 0,5 mm 2 mps 623 mmHg 64%
    12:00 +25°C° 0,5 mm 2 mps 623 mmHg 63%
    13:00 +26°C° 0,5 mm 2 mps 622 mmHg 62%
    14:00 +25°C° 1 mm 2 mps 622 mmHg 66%
    15:00 +24°C° 1 mm 2 mps 621 mmHg 71%
    16:00 +24°C° 1 mm 2 mps 621 mmHg 75%
    17:00 +21°C° 0,7 mm 2 mps 621 mmHg 80%
    18:00 +19°C° 0,7 mm 2 mps 621 mmHg 85%
    19:00 +17°C° 0,7 mm 2 mps 621 mmHg 90%
    20:00 +17°C° 0 mm 2 mps 621 mmHg 90%
    21:00 +17°C° 0 mm 2 mps 621 mmHg 90%
    22:00 +16°C° 0 mm 2 mps 622 mmHg 90%
    23:00 +16°C° 0 mm 2 mps 621 mmHg 90%
    Mostrar más